Time,TemperatureF,DewpointF,PressureIn,WindDirection,WindDirectionDegrees,WindSpeedMPH,WindSpeedGustMPH,Humidity,HourlyPrecipIn,Conditions,Clouds,dailyrainin,SoftwareType,DateUTC
2013-02-18 00:02:00,12.0,7.0,29.98,NNW,330,13.0,18.0,78,-99.99,,,-99.99,,2013-02-18 05:02:00,
2013-02-18 00:11:00,12.0,7.0,29.99,NNW,330,13.0,20.0,78,-99.99,,,-99.99,,2013-02-18 05:11:00,
2013-02-18 00:21:00,12.0,7.0,30.00,NNW,340,12.0,18.0,78,-99.99,,,-99.99,,2013-02-18 05:21:00,
2013-02-18 00:32:00,12.0,7.0,30.00,NNW,340,7.0,16.0,78,-99.99,,,-99.99,,2013-02-18 05:32:00,
2013-02-18 00:41:00,12.0,7.0,30.00,NNW,340,8.0,16.0,78,-99.99,,,-99.99,,2013-02-18 05:41:00,
2013-02-18 00:52:00,12.0,7.0,30.01,NNW,330,6.0,-999.0,78,-99.99,,,-99.99,,2013-02-18 05:52:00,
2013-02-18 01:02:00,12.0,7.0,30.01,NNW,330,6.0,-999.0,78,-99.99,,,-99.99,,2013-02-18 06:02:00,
2013-02-18 01:11:00,12.0,7.0,30.02,NNW,330,8.0,17.0,78,-99.99,,,-99.99,,2013-02-18 06:11:00,
2013-02-18 01:21:00,12.0,7.0,30.02,NNW,340,8.0,-999.0,78,-99.99,,,-99.99,,2013-02-18 06:21:00,
2013-02-18 01:32:00,12.0,7.0,30.03,NNW,340,8.0,-999.0,78,-99.99,,,-99.99,,2013-02-18 06:32:00,
2013-02-18 01:42:00,12.0,7.0,30.03,NNW,340,9.0,-999.0,78,-99.99,,,-99.99,,2013-02-18 06:42:00,
2013-02-18 01:51:00,12.0,7.0,30.03,NNW,340,7.0,18.0,78,-99.99,,,-99.99,,2013-02-18 06:51:00,
2013-02-18 02:02:00,12.0,7.0,30.03,NNW,340,7.0,18.0,78,-99.99,,,-99.99,,2013-02-18 07:02:00,
2013-02-18 02:11:00,12.0,7.0,30.04,NNW,340,10.0,-999.0,78,-99.99,,,-99.99,,2013-02-18 07:11:00,
2013-02-18 02:22:00,10.0,7.0,30.05,NNW,340,10.0,-999.0,85,-99.99,,,-99.99,,2013-02-18 07:22:00,
2013-02-18 02:32:00,10.0,7.0,30.05,NW,320,9.0,-999.0,85,-99.99,,,-99.99,,2013-02-18 07:32:00,
2013-02-18 02:42:00,10.0,7.0,30.05,NNW,340,10.0,-999.0,85,-99.99,,,-99.99,,2013-02-18 07:42:00,
2013-02-18 02:51:00,10.0,5.0,30.06,NNW,340,16.0,21.0,78,-99.99,,,-99.99,,2013-02-18 07:51:00,
2013-02-18 03:01:00,10.0,5.0,30.06,NNW,340,16.0,21.0,78,-99.99,,,-99.99,,2013-02-18 08:01:00,
2013-02-18 03:11:00,10.0,5.0,30.06,NNW,330,9.0,17.0,78,-99.99,,,-99.99,,2013-02-18 08:11:00,
2013-02-18 03:21:00,10.0,5.0,30.07,NW,320,12.0,20.0,78,-99.99,,,-99.99,,2013-02-18 08:21:00,
2013-02-18 03:32:00,10.0,3.0,30.07,NNW,330,13.0,23.0,72,-99.99,,,-99.99,,2013-02-18 08:32:00,
2013-02-18 03:42:00,10.0,3.0,30.07,NNW,330,12.0,23.0,72,-99.99,,,-99.99,,2013-02-18 08:42:00,
2013-02-18 03:52:00,10.0,3.0,30.08,NNW,330,9.0,21.0,72,-99.99,,,-99.99,,2013-02-18 08:52:00,
2013-02-18 04:03:00,10.0,3.0,30.08,NNW,330,9.0,21.0,72,-99.99,,,-99.99,,2013-02-18 09:03:00,
2013-02-18 04:11:00,10.0,3.0,30.08,NNW,330,10.0,22.0,72,-99.99,,,-99.99,,2013-02-18 09:11:00,
2013-02-18 04:22:00,10.0,3.0,30.10,NW,320,12.0,18.0,72,-99.99,,,-99.99,,2013-02-18 09:22:00,
2013-02-18 04:32:00,10.0,3.0,30.10,NNW,330,10.0,17.0,72,-99.99,,,-99.99,,2013-02-18 09:32:00,
2013-02-18 04:42:00,10.0,3.0,30.11,NW,320,13.0,18.0,72,-99.99,,,-99.99,,2013-02-18 09:42:00,
2013-02-18 04:52:00,10.0,3.0,30.12,NNW,330,9.0,18.0,72,-99.99,,,-99.99,,2013-02-18 09:52:00,
2013-02-18 05:01:00,10.0,3.0,30.12,NNW,330,9.0,18.0,72,-99.99,,,-99.99,,2013-02-18 10:01:00,
2013-02-18 05:11:00,10.0,5.0,30.12,NNW,330,8.0,18.0,78,-99.99,,,-99.99,,2013-02-18 10:11:00,
2013-02-18 05:21:00,10.0,5.0,30.13,NW,320,8.0,-999.0,78,-99.99,,,-99.99,,2013-02-18 10:21:00,
2013-02-18 05:32:00,10.0,5.0,30.14,NNW,330,8.0,-999.0,78,-99.99,,,-99.99,,2013-02-18 10:32:00,
2013-02-18 05:42:00,10.0,5.0,30.14,NNW,330,7.0,-999.0,78,-99.99,,,-99.99,,2013-02-18 10:42:00,
2013-02-18 05:52:00,10.0,5.0,30.14,NNW,330,6.0,-999.0,78,-99.99,,,-99.99,,2013-02-18 10:52:00,
2013-02-18 06:02:00,10.0,5.0,30.14,NNW,330,6.0,-999.0,78,-99.99,,,-99.99,,2013-02-18 11:02:00,
2013-02-18 06:11:00,10.0,5.0,30.14,North,350,6.0,-999.0,78,-99.99,,,-99.99,,2013-02-18 11:11:00,
2013-02-18 06:22:00,10.0,5.0,30.15,NNW,330,5.0,-999.0,78,-99.99,,,-99.99,,2013-02-18 11:22:00,
2013-02-18 06:32:00,10.0,5.0,30.15,NNW,330,6.0,-999.0,78,-99.99,,,-99.99,,2013-02-18 11:32:00,
2013-02-18 06:42:00,10.0,5.0,30.15,NW,320,6.0,-999.0,78,-99.99,,,-99.99,,2013-02-18 11:42:00,
2013-02-18 06:52:00,10.0,5.0,30.16,NNW,330,6.0,-999.0,78,-99.99,,,-99.99,,2013-02-18 11:52:00,
2013-02-18 07:02:00,10.0,5.0,30.16,NNW,330,6.0,-999.0,78,-99.99,,,-99.99,,2013-02-18 12:02:00,
2013-02-18 07:11:00,10.0,7.0,30.17,NNW,340,5.0,-999.0,85,-99.99,,,-99.99,,2013-02-18 12:11:00,
2013-02-18 07:22:00,10.0,7.0,30.17,NNW,330,6.0,-999.0,85,-99.99,,,-99.99,,2013-02-18 12:22:00,
2013-02-18 07:32:00,10.0,7.0,30.17,NNW,340,6.0,-999.0,85,-99.99,,,-99.99,,2013-02-18 12:32:00,
2013-02-18 07:42:00,10.0,7.0,30.17,NNW,330,3.0,-999.0,85,-99.99,,,-99.99,,2013-02-18 12:42:00,
2013-02-18 07:52:00,10.0,7.0,30.17,NNW,330,5.0,-999.0,85,-99.99,,,-99.99,,2013-02-18 12:52:00,
2013-02-18 08:03:00,10.0,7.0,30.17,NNW,330,5.0,-999.0,85,-99.99,,,-99.99,,2013-02-18 13:03:00,
2013-02-18 08:12:00,12.0,5.0,30.18,NW,320,5.0,-999.0,72,-99.99,,,-99.99,,2013-02-18 13:12:00,
2013-02-18 08:22:00,12.0,7.0,30.18,NNW,340,6.0,-999.0,78,-99.99,,,-99.99,,2013-02-18 13:22:00,
2013-02-18 08:32:00,12.0,7.0,30.18,NNW,340,8.0,-999.0,78,-99.99,,,-99.99,,2013-02-18 13:32:00,
2013-02-18 08:42:00,12.0,7.0,30.18,NNW,330,9.0,-999.0,78,-99.99,,,-99.99,,2013-02-18 13:42:00,
2013-02-18 08:53:00,12.0,7.0,30.19,NNW,330,9.0,-999.0,78,-99.99,,,-99.99,,2013-02-18 13:53:00,
2013-02-18 09:02:00,12.0,7.0,30.19,NNW,330,9.0,-999.0,78,-99.99,,,-99.99,,2013-02-18 14:02:00,
2013-02-18 09:11:00,12.0,7.0,30.19,NNW,330,9.0,-999.0,78,-99.99,,,-99.99,,2013-02-18 14:11:00,
2013-02-18 09:22:00,14.0,7.0,30.19,NW,310,8.0,-999.0,72,-99.99,,,-99.99,,2013-02-18 14:22:00,
2013-02-18 09:33:00,14.0,7.0,30.19,NNW,330,9.0,-999.0,72,-99.99,,,-99.99,,2013-02-18 14:33:00,
2013-02-18 09:42:00,14.0,7.0,30.19,NNW,340,8.0,-999.0,72,-99.99,,,-99.99,,2013-02-18 14:42:00,
2013-02-18 09:53:00,16.0,7.0,30.19,NW,320,8.0,-999.0,67,-99.99,,,-99.99,,2013-02-18 14:53:00,
2013-02-18 10:02:00,16.0,7.0,30.19,NNW,330,6.0,-999.0,67,-99.99,,,-99.99,,2013-02-18 15:02:00,
2013-02-18 10:11:00,16.0,7.0,30.19,NW,310,8.0,-999.0,67,-99.99,,,-99.99,,2013-02-18 15:11:00,
2013-02-18 10:22:00,18.0,7.0,30.19,NNW,330,10.0,-999.0,62,-99.99,,,-99.99,,2013-02-18 15:22:00,
2013-02-18 10:32:00,16.0,7.0,30.19,NNW,340,6.0,-999.0,67,-99.99,,,-99.99,,2013-02-18 15:32:00,
2013-02-18 10:42:00,18.0,7.0,30.19,NNW,340,3.0,-999.0,62,-99.99,,,-99.99,,2013-02-18 15:42:00,
2013-02-18 10:52:00,18.0,7.0,30.20,NW,310,7.0,-999.0,62,-99.99,,,-99.99,,2013-02-18 15:52:00,
2013-02-18 11:03:00,18.0,7.0,30.20,NW,310,7.0,-999.0,62,-99.99,,,-99.99,,2013-02-18 16:03:00,
2013-02-18 11:12:00,18.0,7.0,30.20,NNW,330,8.0,-999.0,62,-99.99,,,-99.99,,2013-02-18 16:12:00,
2013-02-18 11:22:00,18.0,7.0,30.19,NNW,330,7.0,-999.0,62,-99.99,,,-99.99,,2013-02-18 16:22:00,
2013-02-18 11:32:00,19.0,7.0,30.19,NW,320,7.0,16.0,57,-99.99,,,-99.99,,2013-02-18 16:32:00,
2013-02-18 11:42:00,19.0,9.0,30.19,NW,320,7.0,16.0,62,-99.99,,,-99.99,,2013-02-18 16:42:00,
2013-02-18 12:04:00,19.0,7.0,30.19,North,350,8.0,-999.0,57,-99.99,,,-99.99,,2013-02-18 17:04:00,
2013-02-18 12:22:00,19.0,7.0,30.18,North,350,9.0,-999.0,57,-99.99,,,-99.99,,2013-02-18 17:22:00,
2013-02-18 12:32:00,21.0,9.0,30.18,West,270,5.0,-999.0,57,-99.99,,,-99.99,,2013-02-18 17:32:00,
2013-02-18 12:42:00,21.0,9.0,30.18,WNW,300,5.0,-999.0,57,-99.99,,,-99.99,,2013-02-18 17:42:00,
2013-02-18 12:52:00,21.0,9.0,30.17,West,280,6.0,-999.0,57,-99.99,,,-99.99,,2013-02-18 17:52:00,
2013-02-18 13:02:00,21.0,9.0,30.17,West,280,6.0,-999.0,57,-99.99,,,-99.99,,2013-02-18 18:02:00,
2013-02-18 13:12:00,21.0,9.0,30.17,West,280,3.0,-999.0,57,-99.99,,,-99.99,,2013-02-18 18:12:00,
2013-02-18 13:23:00,21.0,7.0,30.17,NW,310,6.0,-999.0,53,-99.99,,,-99.99,,2013-02-18 18:23:00,
2013-02-18 13:32:00,21.0,7.0,30.16,WNW,290,6.0,-999.0,53,-99.99,,,-99.99,,2013-02-18 18:32:00,
2013-02-18 13:42:00,23.0,7.0,30.16,West,280,5.0,-999.0,49,-99.99,,,-99.99,,2013-02-18 18:42:00,
2013-02-18 13:52:00,23.0,9.0,30.17,WNW,290,5.0,-999.0,53,-99.99,,,-99.99,,2013-02-18 18:52:00,
2013-02-18 14:03:00,23.0,9.0,30.17,WNW,290,5.0,-999.0,53,-99.99,,,-99.99,,2013-02-18 19:03:00,
2013-02-18 14:12:00,25.0,7.0,30.16,WNW,290,6.0,-999.0,45,-99.99,,,-99.99,,2013-02-18 19:12:00,
2013-02-18 14:22:00,25.0,9.0,30.16,NW,320,5.0,-999.0,49,-99.99,,,-99.99,,2013-02-18 19:22:00,
2013-02-18 14:33:00,25.0,7.0,30.16,North,0,0.0,-999.0,45,-99.99,,,-99.99,,2013-02-18 19:33:00,
2013-02-18 14:42:00,25.0,9.0,30.16,NW,310,5.0,-999.0,49,-99.99,,,-99.99,,2013-02-18 19:42:00,
2013-02-18 14:52:00,25.0,9.0,30.16,NNW,340,8.0,-999.0,49,-99.99,,,-99.99,,2013-02-18 19:52:00,
2013-02-18 15:02:00,25.0,9.0,30.16,NNW,340,8.0,-999.0,49,-99.99,,,-99.99,,2013-02-18 20:02:00,
2013-02-18 15:12:00,25.0,9.0,30.15,NNW,340,6.0,-999.0,49,-99.99,,,-99.99,,2013-02-18 20:12:00,
2013-02-18 15:23:00,25.0,9.0,30.14,NW,310,6.0,-999.0,49,-99.99,,,-99.99,,2013-02-18 20:23:00,
2013-02-18 15:33:00,25.0,7.0,30.14,North,360,5.0,-999.0,45,-99.99,,,-99.99,,2013-02-18 20:33:00,
2013-02-18 15:42:00,25.0,9.0,30.14,North,360,5.0,-999.0,49,-99.99,,,-99.99,,2013-02-18 20:42:00,
2013-02-18 15:52:00,25.0,9.0,30.14,North,0,0.0,-999.0,49,-99.99,,,-99.99,,2013-02-18 20:52:00,
2013-02-18 16:03:00,25.0,9.0,30.14,North,0,0.0,-999.0,49,-99.99,,,-99.99,,2013-02-18 21:03:00,
2013-02-18 16:12:00,25.0,9.0,30.13,North,0,0.0,-999.0,49,-99.99,,,-99.99,,2013-02-18 21:12:00,
2013-02-18 16:22:00,25.0,9.0,30.12,North,0,0.0,-999.0,49,-99.99,,,-99.99,,2013-02-18 21:22:00,
2013-02-18 16:33:00,25.0,10.0,30.12,North,0,0.0,-999.0,53,-99.99,,,-99.99,,2013-02-18 21:33:00,
2013-02-18 16:42:00,27.0,9.0,30.13,North,0,0.0,-999.0,46,-99.99,,,-99.99,,2013-02-18 21:42:00,
2013-02-18 16:52:00,25.0,7.0,30.12,North,0,0.0,-999.0,45,-99.99,,,-99.99,,2013-02-18 21:52:00,
2013-02-18 17:03:00,25.0,7.0,30.12,North,0,0.0,-999.0,45,-99.99,,,-99.99,,2013-02-18 22:03:00,
2013-02-18 17:12:00,25.0,9.0,30.12,North,0,0.0,-999.0,49,-99.99,,,-99.99,,2013-02-18 22:12:00,
2013-02-18 17:22:00,25.0,7.0,30.13,North,0,0.0,-999.0,45,-99.99,,,-99.99,,2013-02-18 22:22:00,
2013-02-18 17:33:00,23.0,9.0,30.13,North,0,0.0,-999.0,53,-99.99,,,-99.99,,2013-02-18 22:33:00,
2013-02-18 17:43:00,21.0,10.0,30.13,North,0,0.0,-999.0,62,-99.99,,,-99.99,,2013-02-18 22:43:00,
2013-02-18 17:52:00,21.0,12.0,30.13,North,0,0.0,-999.0,67,-99.99,,,-99.99,,2013-02-18 22:52:00,
2013-02-18 18:02:00,21.0,12.0,30.13,North,0,0.0,-999.0,67,-99.99,,,-99.99,,2013-02-18 23:02:00,
2013-02-18 18:12:00,21.0,10.0,30.12,North,0,0.0,-999.0,62,-99.99,,,-99.99,,2013-02-18 23:12:00,
2013-02-18 18:33:00,18.0,10.0,30.12,North,0,0.0,-999.0,72,-99.99,,,-99.99,,2013-02-18 23:33:00,
2013-02-18 18:43:00,18.0,12.0,30.12,North,0,0.0,-999.0,78,-99.99,,,-99.99,,2013-02-18 23:43:00,
2013-02-18 18:52:00,18.0,10.0,30.12,North,0,0.0,-999.0,72,-99.99,,,-99.99,,2013-02-18 23:52:00,
2013-02-18 19:03:00,18.0,10.0,30.12,North,0,0.0,-999.0,72,-99.99,,,-99.99,,2013-02-19 00:03:00,
2013-02-18 19:12:00,18.0,10.0,30.12,North,0,0.0,-999.0,72,-99.99,,,-99.99,,2013-02-19 00:12:00,
2013-02-18 19:22:00,18.0,10.0,30.11,North,0,0.0,-999.0,72,-99.99,,,-99.99,,2013-02-19 00:22:00,
2013-02-18 19:34:00,18.0,10.0,30.11,North,0,0.0,-999.0,72,-99.99,,,-99.99,,2013-02-19 00:34:00,
2013-02-18 19:43:00,18.0,10.0,30.10,North,0,0.0,-999.0,72,-99.99,,,-99.99,,2013-02-19 00:43:00,
2013-02-18 19:53:00,18.0,10.0,30.09,North,0,0.0,-999.0,72,-99.99,,,-99.99,,2013-02-19 00:53:00,
2013-02-18 20:03:00,18.0,10.0,30.09,North,0,0.0,-999.0,72,-99.99,,,-99.99,,2013-02-19 01:03:00,
2013-02-18 20:14:00,18.0,10.0,30.09,North,0,0.0,-999.0,72,-99.99,,,-99.99,,2013-02-19 01:14:00,
2013-02-18 20:24:00,18.0,10.0,30.08,North,0,0.0,-999.0,72,-99.99,,,-99.99,,2013-02-19 01:24:00,
2013-02-18 20:34:00,18.0,10.0,30.07,SSE,160,3.0,-999.0,72,-99.99,,,-99.99,,2013-02-19 01:34:00,
2013-02-18 20:43:00,18.0,12.0,30.07,SE,140,3.0,-999.0,78,-99.99,,,-99.99,,2013-02-19 01:43:00,
2013-02-18 20:54:00,18.0,12.0,30.06,SSE,150,3.0,-999.0,78,-99.99,,,-99.99,,2013-02-19 01:54:00,
2013-02-18 21:03:00,18.0,12.0,30.06,SSE,150,3.0,-999.0,78,-99.99,,,-99.99,,2013-02-19 02:03:00,
2013-02-18 21:14:00,18.0,12.0,30.06,SSE,150,3.0,-999.0,78,-99.99,,,-99.99,,2013-02-19 02:14:00,
2013-02-18 21:23:00,18.0,10.0,30.05,ESE,120,5.0,-999.0,72,-99.99,,,-99.99,,2013-02-19 02:23:00,
2013-02-18 21:34:00,21.0,10.0,30.05,SE,140,3.0,-999.0,62,-99.99,,,-99.99,,2013-02-19 02:34:00,
2013-02-18 21:43:00,21.0,10.0,30.05,SE,130,7.0,-999.0,62,-99.99,,,-99.99,,2013-02-19 02:43:00,
2013-02-18 21:53:00,23.0,10.0,30.05,SE,140,5.0,-999.0,57,-99.99,,,-99.99,,2013-02-19 02:53:00,
2013-02-18 22:06:00,23.0,10.0,30.05,SE,140,5.0,-999.0,57,-99.99,,,-99.99,,2013-02-19 03:06:00,
2013-02-18 22:14:00,23.0,10.0,30.04,ESE,120,7.0,-999.0,57,-99.99,,,-99.99,,2013-02-19 03:14:00,
2013-02-18 22:24:00,25.0,10.0,30.03,SE,140,6.0,-999.0,53,-99.99,,,-99.99,,2013-02-19 03:24:00,
2013-02-18 22:44:00,23.0,10.0,30.03,SE,140,6.0,-999.0,57,-99.99,,,-99.99,,2013-02-19 03:44:00,
2013-02-18 22:53:00,25.0,10.0,30.03,SSE,160,8.0,-999.0,53,-99.99,,,-99.99,,2013-02-19 03:53:00,
2013-02-18 23:03:00,25.0,10.0,30.03,SSE,160,8.0,-999.0,53,-99.99,,,-99.99,,2013-02-19 04:03:00,
2013-02-18 23:14:00,25.0,10.0,30.02,SSE,150,9.0,-999.0,53,-99.99,,,-99.99,,2013-02-19 04:14:00,
2013-02-18 23:23:00,27.0,10.0,30.02,South,170,9.0,-999.0,49,-99.99,,,-99.99,,2013-02-19 04:23:00,
2013-02-18 23:33:00,27.0,9.0,30.02,South,170,10.0,-999.0,46,-99.99,,,-99.99,,2013-02-19 04:33:00,
2013-02-18 23:43:00,27.0,10.0,30.02,South,170,9.0,-999.0,49,-99.99,,,-99.99,,2013-02-19 04:43:00,
2013-02-18 23:53:00,28.0,10.0,30.02,SSE,160,10.0,16.0,46,-99.99,,,-99.99,,2013-02-19 04:53:00,